DW9152 Jackson Heights NY US current weather conditions

sailwx.info

Wind from 202 at 5 knots gusting 10

Air temperature 21.7° C
Dewpoint 19.8° C

Last reported at 2019-Jun-18 20:08 UTC.
Time now 2019-Jun-18 20:41 UTC

Location: N 40°45' W 073°53'.
View on Google Maps.

See reports from other nearby stations

  
Tides and Currents Weather Stations Pressure Air Temp Water Temp Dewpoint Dewpoint Depression Visibility Wind Speed Wind Dir Waves Ship Positions
date/time (UTC)wind fromknots sea level pressurealtimeterstation pressurevisibilityair tempwater tempwave heightnotes
2019-Jun-18 20:08 202 5 gusting 10 21.7
2019-Jun-18 20:04 153 3 gusting 8 21.7
2019-Jun-18 19:58 167 3 gusting 8 21.7
2019-Jun-18 19:53 154 3 gusting 8 21.7
2019-Jun-18 19:48 145 2 gusting 8 21.7
2019-Jun-18 19:43 157 2 gusting 6 21.7
2019-Jun-18 19:38 158 3 gusting 6 21.7
2019-Jun-18 19:33 155 4 gusting 7 21.7
2019-Jun-18 19:28 167 4 gusting 8 21.7
2019-Jun-18 19:23 177 4 gusting 8 21.7
2019-Jun-18 19:18 178 3 gusting 7 21.7
2019-Jun-18 19:13 178 3 gusting 6 21.7
2019-Jun-18 19:08 173 2 gusting 6 21.7
2019-Jun-18 19:03 162 2 gusting 6 21.7
2019-Jun-18 18:58 202 2 gusting 6 21.7
2019-Jun-18 18:53 172 21.7
2019-Jun-18 18:48 174 1 gusting 7 21.7
2019-Jun-18 18:43 171 4 gusting 12 21.7
2019-Jun-18 18:38 171 6 gusting 12 21.7
2019-Jun-18 18:33 152 6 gusting 12 21.7
2019-Jun-18 18:28 208 6 gusting 12 21.7
2019-Jun-18 18:22 196 6 gusting 13 21.7
2019-Jun-18 18:17 179 7 gusting 13 21.7
2019-Jun-18 18:12 163 6 gusting 12 21.7
2019-Jun-18 18:07 178 6 gusting 11 21.7
2019-Jun-18 18:02 202 6 gusting 10 21.7
2019-Jun-18 17:57 197 4 gusting 10 21.7
2019-Jun-18 17:52 187 4 gusting 7 21.7
2019-Jun-18 17:47 208 5 gusting 11 21.7
2019-Jun-18 17:42 204 4 gusting 11 21.7
2019-Jun-18 17:37 175 5 gusting 11 21.7
2019-Jun-18 17:32 178 5 gusting 11 21.7
2019-Jun-18 17:27 171 2 gusting 10 21.7
2019-Jun-18 17:22 179 1 gusting 6 21.7
2019-Jun-18 17:17 236 2 gusting 9 22.2
2019-Jun-18 17:12 235 3 gusting 13 21.7
2019-Jun-18 17:07 189 6 gusting 13 22.2
2019-Jun-18 17:02 201 6 gusting 13 22.2
2019-Jun-18 16:57 175 6 gusting 13 22.2
2019-Jun-18 16:52 173 6 gusting 9 22.2
2019-Jun-18 16:47 198 6 gusting 11 22.2
2019-Jun-18 16:42 171 6 gusting 11 22.8
2019-Jun-18 16:37 165 5 gusting 10 22.8
2019-Jun-18 16:32 207 4 gusting 9 22.8
2019-Jun-18 16:27 194 5 gusting 11 22.8
2019-Jun-18 16:22 142 6 gusting 11 23.3
2019-Jun-18 16:17 185 5 gusting 9 23.3
2019-Jun-18 16:12 179 5 gusting 10 23.3
2019-Jun-18 16:07 205 5 gusting 10 23.3
2019-Jun-18 16:02 184 5 gusting 9 23.3
2019-Jun-18 15:57 170 5 gusting 10 23.3
2019-Jun-18 15:52 167 6 gusting 10 23.3
2019-Jun-18 15:47 149 6 gusting 9 23.3
2019-Jun-18 15:42 141 6 gusting 10 23.3
2019-Jun-18 15:37 177 5 gusting 10 23.3
2019-Jun-18 15:32 192 5 gusting 10 23.3
2019-Jun-18 15:27 167 5 gusting 10 23.3
2019-Jun-18 15:22 174 5 gusting 7 22.8
2019-Jun-18 15:17 187 5 gusting 8 22.8
2019-Jun-18 15:12 174 5 gusting 8 22.8
2019-Jun-18 15:07 200 4 gusting 8 22.8
2019-Jun-18 15:02 167 3 gusting 6 22.8
2019-Jun-18 14:57 164 4 gusting 6 22.2
2019-Jun-18 14:52 198 4 gusting 8 22.2
2019-Jun-18 14:47 168 4 gusting 8 22.2
2019-Jun-18 14:42 181 4 gusting 6 22.2
2019-Jun-18 14:37 202 4 gusting 6 22.2
2019-Jun-18 14:32 177 3 gusting 6 22.2
2019-Jun-18 14:27 186 3 gusting 6 22.2
2019-Jun-18 14:22 221 3 gusting 6 21.7
2019-Jun-18 14:17 196 3 gusting 7 22.2
2019-Jun-18 14:12 231 4 gusting 7 21.7
2019-Jun-18 14:07 225 4 gusting 7 21.7
2019-Jun-18 14:02 218 5 gusting 8 21.7
2019-Jun-18 13:56 212 4 gusting 8 21.7
2019-Jun-18 13:51 202 4 gusting 6 21.7
2019-Jun-18 13:46 176 4 gusting 6 21.7
2019-Jun-18 13:41 167 4 gusting 7 21.7
2019-Jun-18 13:36 194 4 gusting 7 21.7
2019-Jun-18 13:31 198 3 gusting 6 21.7
2019-Jun-18 13:26 198 3 gusting 6 21.7
2019-Jun-18 13:21 218 4 gusting 7 21.7
2019-Jun-18 13:16 156 5 gusting 7 21.1
2019-Jun-18 13:11 151 4 gusting 7 21.1
2019-Jun-18 13:06 181 4 gusting 7 21.1
2019-Jun-18 13:01 179 4 gusting 7 21.1
2019-Jun-18 12:56 170 3 gusting 7 20.6
2019-Jun-18 12:51 189 2 gusting 6 20.6
2019-Jun-18 12:41 186 4 gusting 6 20.6
2019-Jun-18 12:36 198 4 gusting 7 20.6
2019-Jun-18 12:31 189 4 gusting 7 20.6
2019-Jun-18 12:26 182 4 gusting 7 20.6
2019-Jun-18 12:21 169 4 gusting 7 20.6
2019-Jun-18 12:16 194 3 gusting 7 20.6
2019-Jun-18 12:11 159 4 gusting 9 20.6
2019-Jun-18 12:06 206 4 gusting 9 20.6
2019-Jun-18 12:01 190 3 gusting 6 20.6
2019-Jun-18 11:56 159 3 gusting 6 20.0
2019-Jun-18 11:51 177 2 gusting 6 20.0
2019-Jun-18 11:46 177 1 gusting 5 20.0
2019-Jun-18 11:41 179 0 gusting 3 20.0
2019-Jun-18 11:36 178 0 gusting 3 20.0
2019-Jun-18 11:31 179 0 gusting 4 20.0
2019-Jun-18 11:26 187 0 gusting 4 20.0
2019-Jun-18 11:21 195 1 gusting 5 20.0
2019-Jun-18 11:16 205 1 gusting 5 20.0
2019-Jun-18 11:11 225 0 gusting 4 20.6
2019-Jun-18 11:06 190 20.6
2019-Jun-18 11:01 189 20.6
2019-Jun-18 10:55 188 20.6
2019-Jun-18 10:50 187 20.6
2019-Jun-18 10:45 189 20.6
2019-Jun-18 10:40 189 20.6
2019-Jun-18 10:35 189 0 gusting 4 20.6
2019-Jun-18 10:30 189 0 gusting 4 20.6
2019-Jun-18 10:25 178 1 gusting 6 20.6
2019-Jun-18 10:20 183 3 gusting 6 20.6
2019-Jun-18 10:15 177 3 gusting 6 20.6
2019-Jun-18 10:10 179 3 gusting 6 20.6
2019-Jun-18 10:05 183 3 gusting 6 20.6
2019-Jun-18 10:00 181 3 gusting 6 20.6
2019-Jun-18 09:50 162 3 gusting 6 20.6
2019-Jun-18 09:45 194 3 gusting 6 20.6
2019-Jun-18 09:39 180 3 gusting 6 20.6
2019-Jun-18 09:34 190 2 gusting 5 20.6
2019-Jun-18 09:29 191 1 gusting 4 20.6
2019-Jun-18 09:24 189 0 gusting 4 20.6
2019-Jun-18 09:19 189 1 gusting 4 20.6
2019-Jun-18 09:14 189 1 gusting 4 20.6
2019-Jun-18 09:09 189 2 gusting 5 20.6
2019-Jun-18 09:04 181 1 gusting 5 20.6
2019-Jun-18 08:59 177 1 gusting 4 20.6
2019-Jun-18 08:54 179 0 gusting 4 20.6
2019-Jun-18 08:49 178 0 gusting 3 20.6
2019-Jun-18 08:44 177 0 gusting 4 20.6
2019-Jun-18 08:39 178 0 gusting 4 20.6
2019-Jun-18 08:34 177 2 gusting 4 20.6
2019-Jun-18 08:29 178 1 gusting 4 20.6
2019-Jun-18 08:24 178 20.6
2019-Jun-18 08:19 181 20.6
2019-Jun-18 08:14 180 0 gusting 2 20.6
2019-Jun-18 08:08 180 0 gusting 3 20.6
2019-Jun-18 08:03 180 0 gusting 3 20.6
2019-Jun-18 07:58 180 20.6
2019-Jun-18 07:53 181 0 gusting 5 20.6
2019-Jun-18 07:48 181 2 gusting 6 20.6
2019-Jun-18 07:43 188 3 gusting 6 20.6
2019-Jun-18 07:38 204 2 gusting 6 20.6
2019-Jun-18 07:33 189 0 gusting 6 20.6
2019-Jun-18 07:28 185 2 gusting 6 20.6
2019-Jun-18 07:23 186 2 gusting 6 20.6
2019-Jun-18 07:18 198 1 gusting 4 20.6
2019-Jun-18 07:13 185 0 gusting 4 20.6
2019-Jun-18 07:08 195 20.6
2019-Jun-18 07:03 195 20.6
2019-Jun-18 06:58 195 20.6
2019-Jun-18 06:53 195 20.6
2019-Jun-18 06:47 195 20.6
2019-Jun-18 06:42 195 0 gusting 3 20.6
2019-Jun-18 06:37 195 1 gusting 3 20.6
2019-Jun-18 06:32 195 1 gusting 4 20.6
2019-Jun-18 06:27 210 1 gusting 4 20.6
2019-Jun-18 06:22 206 0 gusting 4 20.6
2019-Jun-18 06:17 197 2 gusting 6 20.6
2019-Jun-18 06:12 197 4 gusting 6 20.6
2019-Jun-18 06:07 193 4 gusting 7 20.6
2019-Jun-18 06:02 179 3 gusting 7 20.6
2019-Jun-18 05:57 179 4 gusting 6 20.6
2019-Jun-18 05:52 186 4 gusting 6 20.6
2019-Jun-18 05:47 189 3 gusting 6 20.6
2019-Jun-18 05:42 186 2 gusting 5 20.6
2019-Jun-18 05:37 180 3 gusting 5 20.6
2019-Jun-18 05:32 172 2 gusting 5 20.6
2019-Jun-18 05:27 187 3 gusting 6 20.6
2019-Jun-18 05:21 187 3 gusting 6 20.6
2019-Jun-18 05:16 175 4 gusting 6 20.6
2019-Jun-18 05:11 177 5 gusting 6 20.6
2019-Jun-18 05:06 178 5 gusting 7 20.6
2019-Jun-18 05:01 187 5 gusting 7 20.6
2019-Jun-18 04:56 184 5 gusting 8 20.6
2019-Jun-18 04:51 205 4 gusting 8 20.6
2019-Jun-18 04:46 197 2 gusting 6 20.6
2019-Jun-18 04:41 198 2 gusting 5 20.6
2019-Jun-18 04:36 200 2 gusting 6 20.6
2019-Jun-18 04:31 178 2 gusting 6 20.6
2019-Jun-18 04:26 167 1 gusting 5 20.6
2019-Jun-18 04:21 189 1 gusting 5 20.6
2019-Jun-18 04:16 196 2 gusting 5 20.6
2019-Jun-18 04:11 201 2 gusting 5 20.6
2019-Jun-18 04:06 187 1 gusting 5 20.6
2019-Jun-18 04:01 186 2 gusting 5 20.6
2019-Jun-18 03:56 202 2 gusting 6 20.6
2019-Jun-18 03:51 202 3 gusting 7 20.6
2019-Jun-18 03:41 190 4 gusting 7 20.6
2019-Jun-18 03:36 188 4 gusting 7 20.6
2019-Jun-18 03:31 214 4 gusting 6 20.6
2019-Jun-18 03:26 218 4 gusting 6 20.6
2019-Jun-18 03:21 201 4 gusting 6 20.6
2019-Jun-18 03:16 188 3 gusting 6 20.6
2019-Jun-18 03:11 178 4 gusting 6 20.6
2019-Jun-18 03:06 182 5 gusting 7 20.6
2019-Jun-18 03:01 204 5 gusting 7 20.6
2019-Jun-18 02:56 196 5 gusting 9 20.6
2019-Jun-18 02:51 179 5 gusting 9 20.6
2019-Jun-18 02:46 191 5 gusting 8 20.6
2019-Jun-18 02:40 188 5 gusting 10 20.6
2019-Jun-18 02:35 200 6 gusting 10 20.6
2019-Jun-18 02:30 196 6 gusting 9 20.6
2019-Jun-18 02:25 187 5 gusting 9 21.1
2019-Jun-18 02:21 164 4 gusting 8 21.1
2019-Jun-18 02:16 183 4 gusting 7 21.1
2019-Jun-18 02:10 211 4 gusting 7 21.1
2019-Jun-18 02:05 189 3 gusting 7 21.1
2019-Jun-18 02:00 189 5 gusting 7 21.1
2019-Jun-18 01:55 205 5 gusting 10 21.1
2019-Jun-18 01:50 213 5 gusting 10 21.1
2019-Jun-18 01:45 205 6 gusting 9 21.1
2019-Jun-18 01:40 206 6 gusting 9 21.7
2019-Jun-18 01:35 183 6 gusting 9 21.7
2019-Jun-18 01:30 175 6 gusting 9 21.7
2019-Jun-18 01:25 189 4 gusting 8 21.7
2019-Jun-18 01:20 176 3 gusting 7 21.7
2019-Jun-18 01:15 154 2 gusting 6 21.7
2019-Jun-18 01:10 188 3 gusting 6 21.7
2019-Jun-18 01:05 204 3 gusting 6 21.7
2019-Jun-18 01:00 183 3 gusting 6 21.7
2019-Jun-18 00:55 203 5 gusting 8 21.7
2019-Jun-18 00:50 182 6 gusting 9 21.7
2019-Jun-18 00:45 206 5 gusting 9 21.7
2019-Jun-18 00:40 149 4 gusting 8 21.7
2019-Jun-18 00:35 163 4 gusting 8 21.7
2019-Jun-18 00:30 194 5 gusting 10 21.7
2019-Jun-18 00:25 212 6 gusting 10 21.7
2019-Jun-18 00:20 199 6 gusting 11 21.7
2019-Jun-18 00:15 202 6 gusting 11 21.7
2019-Jun-18 00:10 210 6 gusting 9 22.2
2019-Jun-18 00:05 205 6 gusting 8 22.2
2019-Jun-18 00:00 207 6 gusting 9 22.2
2019-Jun-17 23:55 195 6 gusting 9 22.2
2019-Jun-17 23:50 215 6 gusting 11 22.2
2019-Jun-17 23:45 197 6 gusting 11 22.2
2019-Jun-17 23:40 215 5 gusting 9 22.8
2019-Jun-17 23:30 184 6 gusting 9 22.8
2019-Jun-17 23:25 188 6 gusting 9 22.8
2019-Jun-17 23:20 201 5 gusting 9 22.8
2019-Jun-17 23:15 185 4 gusting 7 22.8
2019-Jun-17 23:10 189 5 gusting 10 22.8
2019-Jun-17 23:05 179 6 gusting 10 22.8
2019-Jun-17 23:00 171 5 gusting 6 22.8
2019-Jun-17 22:55 202 4 gusting 6 23.3
2019-Jun-17 22:50 193 4 gusting 6 23.3
2019-Jun-17 22:45 196 4 gusting 7 23.3
2019-Jun-17 22:40 202 5 gusting 7 23.3
2019-Jun-17 22:35 205 6 gusting 8 23.3
2019-Jun-17 22:30 201 6 gusting 8 23.3
2019-Jun-17 22:24 206 6 gusting 9 23.3
2019-Jun-17 22:19 196 6 gusting 9 23.9
2019-Jun-17 22:15 185 4 gusting 9 24.4
2019-Jun-17 22:04 152 1 gusting 5 24.4
2019-Jun-17 21:59 086 1 gusting 6 24.4
2019-Jun-17 21:54 086 1 gusting 6 24.4
2019-Jun-17 21:49 086 2 gusting 6 24.4
2019-Jun-17 21:44 087 3 gusting 6 24.4
2019-Jun-17 21:39 087 2 gusting 6 24.4
2019-Jun-17 21:34 091 2 gusting 6 24.4
2019-Jun-17 21:29 090 2 gusting 6 24.4
2019-Jun-17 21:24 089 2 gusting 6 24.4
2019-Jun-17 21:19 089 3 gusting 7 24.4
2019-Jun-17 21:14 093 2 gusting 7 24.4
2019-Jun-17 21:09 093 2 gusting 6 24.4
2019-Jun-17 21:04 093 3 gusting 6 23.9
2019-Jun-17 20:59 093 2 gusting 6 23.9
2019-Jun-17 20:54 105 2 gusting 6 23.9
2019-Jun-17 20:49 106 1 gusting 4 23.9
2019-Jun-17 20:44 106 0 gusting 4 23.9
2019-Jun-17 20:39 105 0 gusting 3 23.3
2019-Jun-17 20:34 106 0 gusting 3 23.3
2019-Jun-17 20:29 106 1 gusting 4 23.3
2019-Jun-17 20:24 106 1 gusting 4 23.3
2019-Jun-17 20:19 106 0 gusting 3 23.3
2019-Jun-17 20:14 106 0 gusting 2 23.9
2019-Jun-17 20:08 106 0 gusting 2 23.9
2019-Jun-17 20:03 106 2 gusting 6 23.9
2019-Jun-17 19:58 105 3 gusting 6 23.3
2019-Jun-17 19:53 108 3 gusting 6 23.9
2019-Jun-17 19:48 123 1 gusting 5 23.9
2019-Jun-17 19:43 203 0 gusting 3 23.9
2019-Jun-17 19:38 212 23.9
2019-Jun-17 19:33 211 0 gusting 3 23.9
2019-Jun-17 19:28 211 0 gusting 5 23.9
2019-Jun-17 19:23 211 2 gusting 6 23.9
2019-Jun-17 19:18 212 2 gusting 6 23.9
2019-Jun-17 19:13 202 2 gusting 6 23.9
2019-Jun-17 19:08 189 2 gusting 6 23.9
2019-Jun-17 19:03 175 1 gusting 6 23.9
2019-Jun-17 18:58 150 2 gusting 5 23.9
2019-Jun-17 18:53 149 1 gusting 5 23.9
2019-Jun-17 18:48 071 0 gusting 4 23.9
2019-Jun-17 18:43 065 1 gusting 4 23.9
2019-Jun-17 18:38 359 1 gusting 3 24.4
2019-Jun-17 18:33 354 0 gusting 3 24.4
2019-Jun-17 18:28 333 24.4
2019-Jun-17 18:23 333 24.4
2019-Jun-16 23:07 220 10 gusting 22 24.4
2019-Jun-16 23:02 244 10 gusting 22 25.6
2019-Jun-16 22:57 236 7 gusting 22 27.2
2019-Jun-16 22:52 248 4 gusting 9 27.2
2019-Jun-16 22:47 227 6 gusting 14 27.2
2019-Jun-16 22:42 258 7 gusting 14 27.2
2019-Jun-16 22:37 280 6 gusting 16 27.2
2019-Jun-16 22:32 251 6 gusting 16 27.2
2019-Jun-16 22:27 267 6 gusting 13 27.2
2019-Jun-16 22:22 279 6 gusting 13 27.2
2019-Jun-16 22:17 273 6 gusting 13 27.8
2019-Jun-16 22:12 266 6 gusting 13 27.8
2019-Jun-16 22:07 243 6 gusting 11 27.8
2019-Jun-16 22:02 244 5 gusting 11 27.8
2019-Jun-16 21:57 277 6 gusting 13 27.8
2019-Jun-16 21:52 229 6 gusting 13 27.8
2019-Jun-16 21:47 248 6 gusting 12 27.8
2019-Jun-16 21:42 246 6 gusting 12 27.8
2019-Jun-16 21:37 227 8 gusting 14 27.8
2019-Jun-16 21:32 262 8 gusting 14 27.8
2019-Jun-16 21:27 252 7 gusting 14 27.8
2019-Jun-16 21:22 243 7 gusting 14 27.8
2019-Jun-16 21:17 220 6 gusting 14 27.8
2019-Jun-16 21:12 263 7 gusting 15 27.8
2019-Jun-16 21:07 243 7 gusting 15 28.3
2019-Jun-16 21:02 268 7 gusting 13 28.3
2019-Jun-16 20:57 252 7 gusting 15 27.8
2019-Jun-16 20:52 258 8 gusting 15 27.8
2019-Jun-16 20:47 221 8 gusting 13 27.2
2019-Jun-16 20:42 257 8 gusting 15 27.2
2019-Jun-16 20:37 243 9 gusting 17 27.2
2019-Jun-16 20:32 234 9 gusting 17 27.2
2019-Jun-16 20:27 209 7 gusting 13 27.2
2019-Jun-16 20:22 225 7 gusting 13 27.2
2019-Jun-16 20:17 243 6 gusting 14 27.2
2019-Jun-16 20:12 243 7 gusting 17 27.2
2019-Jun-16 20:02 227 10 gusting 19 27.2